Tracking 25612 objects as of 19-May-2022
HD Live streaming from Space Station
objects crossing your sky now

SL-19 DEB

Track SL-19 DEB now!
10-day predictions


NORAD ID: 23479
Int'l Code: 1994-085C
Perigee: 1,849.3 km
Apogee: 2,041.4 km
Inclination: 65.0 °
Period: 125.8 minutes
Semi major axis: 8316 km
RCS: 0.2064 m2 (medium)
Launch date: December 26, 1994
Source: Commonwealth of Independent States (former USSR) (CIS)
Launch site: TYURATAM MISSILE AND SPACE COMPLEX (TTMTR)

Note: This is SATELLITE DEBRIS
aabbcc
Your satellite tracking list
Your tracking list is empty




NASA's NSSDC Master Catalog

Two Line Element Set (TLE):
1 23479U 94085C   22138.90168112 -.00000453  00000-0 -96392-2 0  9990
2 23479  65.0430 182.1605 0115516 313.5067 221.0365 11.44737553142570
Source of the keplerian elements: AFSPC